Time,TemperatureF,DewpointF,PressureIn,WindDirection,WindDirectionDegrees,WindSpeedMPH,WindSpeedGustMPH,Humidity,HourlyPrecipIn,Conditions,Clouds,dailyrainin,SoftwareType,DateUTC
2013-09-11 00:23:00,67.0,65.0,30.06,WNW,299,0.0,0.0,92,0.00,,,0.00,,2013-09-11 05:23:00,
2013-09-11 01:42:00,66.0,64.0,30.07,WNW,299,0.0,0.0,94,0.00,,,0.00,,2013-09-11 06:42:00,
2013-09-11 01:52:00,66.0,64.0,30.07,WNW,299,0.0,0.0,94,0.00,,,0.00,,2013-09-11 06:52:00,
2013-09-11 02:12:00,66.0,64.0,30.07,WNW,299,0.0,0.0,94,0.00,,,0.00,,2013-09-11 07:12:00,
2013-09-11 02:23:00,66.0,64.0,30.07,WNW,299,0.0,0.0,94,0.00,,,0.00,,2013-09-11 07:23:00,
2013-09-11 02:42:00,66.0,65.0,30.07,WNW,299,0.0,0.0,95,0.00,,,0.00,,2013-09-11 07:42:00,
2013-09-11 02:52:00,66.0,64.0,30.07,WNW,299,0.0,0.0,94,0.00,,,0.00,,2013-09-11 07:52:00,
2013-09-11 03:12:00,66.0,64.0,30.07,WNW,299,0.0,0.0,94,0.00,,,0.00,,2013-09-11 08:12:00,
2013-09-11 03:22:00,66.0,64.0,30.07,WNW,299,0.0,0.0,94,0.00,,,0.00,,2013-09-11 08:22:00,
2013-09-11 03:42:00,65.0,64.0,30.07,WNW,299,0.0,0.0,95,0.00,,,0.00,,2013-09-11 08:42:00,
2013-09-11 03:52:00,65.0,64.0,30.07,WNW,299,0.0,0.0,95,0.00,,,0.00,,2013-09-11 08:52:00,
2013-09-11 04:12:00,65.0,64.0,30.07,WNW,299,0.0,0.0,95,0.00,,,0.00,,2013-09-11 09:12:00,
2013-09-11 04:21:00,65.0,64.0,30.07,WNW,299,0.0,0.0,96,0.00,,,0.00,,2013-09-11 09:21:00,
2013-09-11 04:43:00,65.0,64.0,30.07,WNW,299,0.0,0.0,95,0.00,,,0.00,,2013-09-11 09:43:00,
2013-09-11 04:53:00,65.0,64.0,30.07,WNW,299,0.0,0.0,95,0.00,,,0.00,,2013-09-11 09:53:00,
2013-09-11 05:13:00,65.0,64.0,30.07,WNW,299,0.0,0.0,96,0.00,,,0.00,,2013-09-11 10:13:00,
2013-09-11 05:23:00,65.0,64.0,30.06,WNW,299,0.0,0.0,95,0.00,,,0.00,,2013-09-11 10:23:00,
2013-09-11 05:42:00,64.0,63.0,30.06,WNW,299,0.0,0.0,95,0.00,,,0.00,,2013-09-11 10:42:00,
2013-09-11 05:53:00,64.0,63.0,30.07,WNW,299,0.0,0.0,96,0.00,,,0.00,,2013-09-11 10:53:00,
2013-09-11 06:12:00,64.0,63.0,30.07,WNW,299,0.0,0.0,96,0.00,,,0.00,,2013-09-11 11:12:00,
2013-09-11 06:21:00,64.0,63.0,30.07,WNW,299,0.0,0.0,97,0.00,,,0.00,,2013-09-11 11:21:00,
2013-09-11 06:52:00,64.0,63.0,30.08,WNW,299,0.0,0.0,96,0.00,,,0.00,,2013-09-11 11:52:00,
2013-09-11 07:11:00,64.0,63.0,30.09,WNW,299,0.0,0.0,97,0.00,,,0.00,,2013-09-11 12:11:00,
2013-09-11 07:21:00,64.0,63.0,30.09,WNW,299,0.0,0.0,96,0.00,,,0.00,,2013-09-11 12:21:00,
2013-09-11 07:52:00,64.0,63.0,30.09,WNW,299,0.0,0.0,97,0.00,,,0.00,,2013-09-11 12:52:00,
2013-09-11 08:12:00,65.0,64.0,30.10,WNW,299,0.0,0.0,97,0.00,,,0.00,,2013-09-11 13:12:00,
2013-09-11 08:22:00,65.0,64.0,30.10,WNW,299,0.0,0.0,98,0.00,,,0.00,,2013-09-11 13:22:00,
2013-09-11 08:42:00,67.0,66.0,30.10,WNW,299,0.0,0.0,97,0.00,,,0.00,,2013-09-11 13:42:00,
2013-09-11 08:52:00,69.0,68.0,30.10,WNW,299,0.0,0.0,97,0.00,,,0.00,,2013-09-11 13:52:00,
2013-09-11 09:11:00,72.0,69.0,30.10,WNW,300,0.0,0.0,90,0.00,,,0.00,,2013-09-11 14:11:00,
2013-09-11 09:22:00,75.0,69.0,30.10,NE,42,0.0,1.0,82,0.00,,,0.00,,2013-09-11 14:22:00,
2013-09-11 09:42:00,76.0,70.0,30.10,NE,42,0.0,0.0,82,0.00,,,0.00,,2013-09-11 14:42:00,
2013-09-11 09:52:00,77.0,70.0,30.10,NNE,26,0.0,0.0,80,0.00,,,0.00,,2013-09-11 14:52:00,
2013-09-11 10:11:00,79.0,71.0,30.10,NNE,26,0.0,0.0,77,0.00,,,0.00,,2013-09-11 15:11:00,
2013-09-11 10:22:00,80.0,70.0,30.11,North,5,0.0,1.0,72,0.00,,,0.00,,2013-09-11 15:22:00,
2013-09-11 10:43:00,82.0,72.0,30.11,NNW,332,0.0,1.0,71,0.00,,,0.00,,2013-09-11 15:43:00,
2013-09-11 10:54:00,82.0,69.0,30.11,West,271,0.0,4.0,66,0.00,,,0.00,,2013-09-11 15:54:00,
2013-09-11 11:13:00,83.0,70.0,30.11,WSW,258,0.0,2.0,64,0.00,,,0.00,,2013-09-11 16:13:00,
2013-09-11 11:23:00,84.0,69.0,30.11,WSW,250,0.0,4.0,61,0.00,,,0.00,,2013-09-11 16:23:00,
2013-09-11 11:53:00,87.0,69.0,30.11,East,96,0.0,2.0,55,0.00,,,0.00,,2013-09-11 16:53:00,
2013-09-11 12:12:00,87.0,67.0,30.11,SW,235,0.0,5.0,52,0.00,,,0.00,,2013-09-11 17:12:00,
2013-09-11 12:23:00,88.0,69.0,30.10,West,259,0.0,4.0,54,0.00,,,0.00,,2013-09-11 17:23:00,
2013-09-11 12:52:00,91.0,69.0,30.10,ENE,61,0.0,2.0,49,0.00,,,0.00,,2013-09-11 17:52:00,
2013-09-11 13:12:00,90.0,68.0,30.09,West,264,1.0,5.0,48,0.00,,,0.00,,2013-09-11 18:12:00,
2013-09-11 13:22:00,90.0,67.0,30.09,SW,219,2.0,5.0,47,0.00,,,0.00,,2013-09-11 18:22:00,
2013-09-11 13:52:00,90.0,68.0,30.08,WSW,256,0.0,6.0,49,0.00,,,0.00,,2013-09-11 18:52:00,
2013-09-11 14:11:00,89.0,67.0,30.08,SW,232,1.0,6.0,48,0.00,,,0.00,,2013-09-11 19:11:00,
2013-09-11 14:22:00,89.0,67.0,30.07,WSW,257,0.0,5.0,49,0.00,,,0.00,,2013-09-11 19:22:00,
2013-09-11 14:42:00,88.0,69.0,30.06,WSW,257,0.0,2.0,53,0.00,,,0.00,,2013-09-11 19:42:00,
2013-09-11 14:52:00,87.0,69.0,30.06,WSW,253,0.0,1.0,55,0.00,,,0.00,,2013-09-11 19:52:00,
2013-09-11 15:12:00,88.0,68.0,30.05,WSW,253,0.0,1.0,51,0.00,,,0.00,,2013-09-11 20:12:00,
2013-09-11 15:22:00,91.0,68.0,30.05,SSW,209,0.0,2.0,47,0.00,,,0.00,,2013-09-11 20:22:00,
2013-09-11 15:42:00,91.0,68.0,30.04,SSE,157,0.0,1.0,47,0.00,,,0.00,,2013-09-11 20:42:00,
2013-09-11 15:52:00,89.0,68.0,30.03,SSE,151,0.0,1.0,50,0.00,,,0.00,,2013-09-11 20:52:00,
2013-09-11 16:12:00,89.0,67.0,30.03,SSE,153,0.0,1.0,49,0.00,,,0.00,,2013-09-11 21:12:00,
2013-09-11 16:22:00,91.0,67.0,30.02,South,173,0.0,1.0,46,0.00,,,0.00,,2013-09-11 21:22:00,
2013-09-11 16:44:00,92.0,68.0,30.02,South,186,0.0,2.0,45,0.00,,,0.00,,2013-09-11 21:44:00,
2013-09-11 16:54:00,92.0,67.0,30.01,WSW,249,0.0,2.0,44,0.00,,,0.00,,2013-09-11 21:54:00,
2013-09-11 17:13:00,91.0,67.0,30.01,WSW,248,0.0,2.0,46,0.00,,,0.00,,2013-09-11 22:13:00,
2013-09-11 17:24:00,92.0,70.0,30.01,SSW,196,0.0,0.0,49,0.00,,,0.00,,2013-09-11 22:24:00,
2013-09-11 17:54:00,91.0,69.0,30.00,SSW,196,0.0,0.0,48,0.00,,,0.00,,2013-09-11 22:54:00,
2013-09-11 18:12:00,91.0,71.0,30.00,SSW,196,0.0,0.0,52,0.00,,,0.00,,2013-09-11 23:12:00,
2013-09-11 18:22:00,90.0,71.0,30.00,SSW,196,0.0,0.0,54,0.00,,,0.00,,2013-09-11 23:22:00,
2013-09-11 18:42:00,88.0,72.0,30.00,SSW,196,0.0,0.0,59,0.00,,,0.00,,2013-09-11 23:42:00,
2013-09-11 18:53:00,86.0,71.0,30.00,SSW,196,0.0,0.0,62,0.00,,,0.00,,2013-09-11 23:53:00,
2013-09-11 19:11:00,85.0,72.0,29.99,SSW,196,0.0,0.0,66,0.00,,,0.00,,2013-09-12 00:11:00,
2013-09-11 23:14:00,73.0,68.0,30.06,ENE,62,0.0,2.0,85,0.00,,,0.00,,2013-09-12 04:14:00,
2013-09-11 23:24:00,76.0,69.0,30.05,ENE,63,0.0,2.0,79,0.00,,,0.00,,2013-09-12 04:24:00,
2013-09-11 23:44:00,76.0,69.0,30.04,ENE,63,0.0,1.0,79,0.00,,,0.00,,2013-09-12 04:44:00,
2013-09-11 23:54:00,75.0,69.0,30.04,ENE,63,0.0,2.0,81,0.00,,,0.00,,2013-09-12 04:54:00,